Regional Weather Roundup
Issued by NWS

Home | Current Version | Previous Version | Text Only | Print | Product List | Glossary On
Versions: 1 2 3 4 5 6 7 8 9 10 11 12 13 14 15 16 17 18 19 20 21 22 23 24 25 26 27 28 29 30 31 32 33 34 35 36 37 38 39 40 41 42 43 44 45 46 47 48 49 50
000
ASUS43 KMPX 021910
RWRMN
WEATHER ROUNDUP FOR MINNESOTA
NATIONAL WEATHER SERVICE TWIN CITIES/CHANHASSEN MN
100 PM CST FRI DEC 02 2016


NOTE: "FAIR" INDICATES FEW OR NO CLOUDS BELOW 12,000 FEET WITH NO
SIGNIFICANT WEATHER AND/OR OBSTRUCTIONS TO VISIBILITY. N/A MEANS
CURRENT SKY AND/OR WEATHER CONDITIONS ARE NOT AVAILABLE.

MNZ060>063-068>070-022000-
   Twin Cities Metro

CITY           SKY/WX    TMP DP  RH WIND       PRES   REMARKS
TWIN CITIES    CLOUDY    33  23  66 NW10      30.23S WCI  25
ST PAUL        CLOUDY    33  26  75 NW9       30.25R WCI  25
CRYSTAL        CLOUDY    32  22  66 NW8       30.22S WCI  25
BLAINE         CLOUDY    34  27  75 NW8       30.22S WCI  27
LAKEVILLE      CLOUDY    30  25  80 NW5       30.23S WCI  25
EDEN PRAIRIE   CLOUDY    33  23  66 W6        30.22S WCI  28
SOUTH ST PAUL  CLOUDY    33  24  69 W6        30.23S WCI  28
LAKE ELMO      CLOUDY    32  28  86 NW7       30.23S WCI  26
$$
MNZ001>005-007-008-013>017-022>024-027-028-022000-
   Northwest Minnesota

CITY           SKY/WX    TMP DP  RH WIND       PRES   REMARKS
BEMIDJI        CLOUDY    24  20  85 NW8       30.21S WCI  15
HALLOCK        CLOUDY    30  25  80 NW6       30.25S WCI  24
ROSEAU         CLOUDY    27  21  80 W7        30.23S WCI  19
WARROAD        CLOUDY    25  21  86 W5        30.23R WCI  19
THIEF RVR FALL CLOUDY    27  22  81 NW10      30.25R WCI  17
CROOKSTON      CLOUDY    30  21  69 N8        30.26S WCI  23
FOSSTON        CLOUDY    25  19  80 NW5       30.23F WCI  19
DETROIT LAKES  CLOUDY    27  23  86 NW9       30.24S WCI  17
MOORHEAD       CLOUDY    28  21  74 N8        30.27S WCI  20
PARK RAPIDS    CLOUDY    26  19  74 NW8       30.21S WCI  18
$$
MNZ006-009>011-018-025>026-022000-
   North Central Minnesota

CITY           SKY/WX    TMP DP  RH WIND       PRES   REMARKS
BAUDETTE       CLOUDY    24  20  84 W5        30.21S WCI  18
FLAG ISLAND    CLOUDY    21  18  86 NW7       30.21S WCI  13
INTL FALLS     CLOUDY    26  22  84 W8        30.19S WCI  18
WASKISH        CLOUDY    25  21  86 NW5       30.22S WCI  19
BIG FORK       CLOUDY    25  21  86 NW5       30.20S WCI  19
LONGVILLE      CLOUDY    25  21  86 NW5       30.21S WCI  19
GRAND RAPIDS   CLOUDY    26  22  84 NW8       30.21S WCI  18
CRANE LAKE     CLOUDY    25  21  86 CALM      30.21S
ORR            CLOUDY    25  21  86 CALM      30.16S
COOK           CLOUDY    27  25  93 W7        30.18S WCI  19
$$
MNZ012-019>021-037-022000-
   Northeast Minnesota

CITY           SKY/WX    TMP DP  RH WIND       PRES   REMARKS
DULUTH         CLOUDY    27  22  81 NW10      30.17R WCI  17
ELY            CLOUDY    25  21  86 NW3       30.16S
HIBBING        CLOUDY    26  22  84 NW8       30.18R WCI  18
EVELETH        CLOUDY    28  23  82 N3        30.18S
DULUTH HARBOR  CLOUDY    30  25  80 NW9       30.22S WCI  22
TWO HARBORS    CLOUDY    30  25  80 NW7       30.16S WCI  23
SILVER BAY     CLOUDY    32  25  74 NW3       30.14S
GRAND MARAIS     N/A     34  25  69 VRB7      30.16R WCI  28
G MARAIS ARPRT CLOUDY    25  19  80 NW9       30.11R WCI  15
$$
MNZ029>031-032-039>041-046>048-054>057-064-022000-
   West Central Minnesota

CITY           SKY/WX    TMP DP  RH WIND       PRES   REMARKS
FERGUS FALLS   CLOUDY    27  19  74 N6        30.29S WCI  20
WHEATON        CLOUDY   N/A N/A N/A N6        30.29F
MORRIS         CLOUDY    28  21  74 NW8       30.25S WCI  20
ALEXANDRIA     CLOUDY    27  21  78 NW3       30.23F
ELBOW LAKE     CLOUDY    27  22  82 W10       30.26S WCI  17
WADENA         CLOUDY    25  21  86 W5        30.22S WCI  19
GLENWOOD       CLOUDY    27  21  80 W5        30.24R WCI  21
APPLETON       CLOUDY    30  21  69 W7        30.26F WCI  23
BENSON         CLOUDY    28  21  74 N7        30.26S WCI  21
ORTONVILLE     CLOUDY    28  19  69 CALM      30.26F
MADISON        CLOUDY    32  25  74 NW6       30.27S WCI  26
WILLMAR        CLOUDY    28  23  80 MISG      30.26S
$$
MNZ033>034-036-042>043-049>051-058-059-022000-
   Central Minnesota

CITY           SKY/WX    TMP DP  RH WIND       PRES   REMARKS
ST CLOUD       CLOUDY    29  23  78 N6        30.23S WCI  23
PAYNESVILLE    CLOUDY    29  24  81 W7        30.24S WCI  22
AITKIN         CLOUDY    28  21  74 CALM      30.20S
PINE RIVER     CLOUDY    25  21  86 W5        30.24S WCI  19
BRAINERD       CLOUDY    26  21  81 NW8       30.22S WCI  18
STAPLES        CLOUDY    25  21  86 W7        30.22S WCI  17
LONG PRAIRIE   CLOUDY    28  21  74 W6        30.23S WCI  22
LITTLE FALLS   CLOUDY    28  21  74 NW5       30.23S WCI  23
LITCHFIELD     CLOUDY    30  25  80 W8        30.24S WCI  23
BUFFALO        CLOUDY    32  24  73 NW6       30.24S WCI  26
MAPLE LAKE     CLOUDY    32  27  80 NW3       30.24S
$$
MNZ037-044-045-052-053-022000-
   East Central Minnesota

CITY           SKY/WX    TMP DP  RH WIND       PRES   REMARKS
PRINCETON      CLOUDY    30  25  80 NW6       30.23F WCI  24
MORA           CLOUDY    30  23  74 W3        30.23S
CAMBRIDGE      CLOUDY    32  21  64 NW7       30.21S WCI  26
RUSH CITY      CLOUDY    30  25  80 W5        30.23R WCI  25
MOOSE LAKE     CLOUDY    30  23  74 NW3       30.19R
HINCKLEY       CLOUDY    30  25  80 W5        30.22R WCI  25
CLOQUET        CLOUDY    28  21  74 W7        30.18S WCI  21
MCGREGOR       CLOUDY    30  25  80 NW5       30.20S WCI  25
$$
MNZ071>073-080-081-089-090-097-098-022000-
   Southwest Minnesota

CITY           SKY/WX    TMP DP  RH WIND       PRES   REMARKS
MONTEVIDEO     CLOUDY    28  25  86 N9        30.28F WCI  20
GRANITE FALLS  CLOUDY    31  24  77 NW7       30.28S WCI  24
CANBY          CLOUDY    30  24  77 W5        30.28R WCI  25
MARSHALL       FLURRIES  30  24  78 N12       30.26F WCI  20
REDWOOD FALLS  CLOUDY    30  20  66 NW6       30.26F WCI  24
OLIVIA         PTSUNNY   30  23  74 NW9       30.25F WCI  22
PIPESTONE      CLOUDY    30  25  80 NW8       30.23S WCI  23
WINDOM         CLOUDY    28  23  80 NW10      30.25S WCI  19
WORTHINGTON    CLOUDY    31  23  72 NW15      30.25S WCI  20
JACKSON        CLOUDY    30  23  74 NW10      30.25S WCI  21
TRACY          CLOUDY    31  25  81 NW6       30.26S WCI  25
SLAYTON        CLOUDY    29  23  79 NW8       30.25S WCI  21
$$
MNZ065>067-074>077-082>085-091>093-022000-
   South Central Minnesota

CITY           SKY/WX    TMP DP  RH WIND       PRES   REMARKS
MANKATO        CLOUDY    29  22  75 NW8       30.26R WCI  21
NEW ULM        CLOUDY    30  21  69 NW7       30.26S WCI  23
ST JAMES       CLOUDY    30  23  74 W14       30.27S WCI  20
FAIRMONT       CLOUDY    31  25  78 NW13      30.26R WCI  21
GLENCOE        CLOUDY    31  26  81 W7        30.24S WCI  25
FARIBAULT      CLOUDY    30  23  74 W9        30.24S WCI  22
OWATONNA       CLOUDY    30  21  69 W9        30.24R WCI  22
WASECA         CLOUDY    32  27  80 W9        30.25S WCI  24
ALBERT LEA     CLOUDY    34  27  75 NW8       30.24R WCI  27
$$
MNZ078>079-086>088-094>096-022000-
   Southeast Minnesota

CITY           SKY/WX    TMP DP  RH WIND       PRES   REMARKS
ROCHESTER      CLOUDY    30  23  75 NW12      30.22R WCI  20
RED WING       CLOUDY    34  21  60 W6        30.22S WCI  29
STANTON        CLOUDY    33  24  70 W5        30.22S WCI  28
DODGE CENTER   CLOUDY    30  23  74 W8        30.22R WCI  23
WINONA         CLOUDY    34  23  64 N3        30.24S
AUSTIN         CLOUDY    30  23  74 NW10      30.23S WCI  21
PRESTON        CLOUDY    30  22  74 N9        30.22R WCI  21
$$
ABBREVIATIONS USED IN REMARKS
   TC - TEMPERATURES IN CELSIUS
  WCI - WIND CHILL INDEX
   HX - HEAT INDEX
  VSB - VISIBILITY
$$



USA.gov is the U.S. government's official web portal to all federal, state and local government web resources and services.